#timestamp,LO_Frequency,Hit,StdDev 
1519556415.5,286047000.4,N
1519556435.3,286047002.8,N
1519556455.2,286047000.3,N
1519556475.0,286047000.3,N
1519556475.9,286047000.3,N
1519556495.8,286047001.2,N
1519556515.6,286046998.4,N
1519556535.4,286047000.8,N
1519556555.3,286047000.1,N
1519556575.1,286047002.7,N
1519556595.8,286046999.8,N
1519556615.7,286047002.7,N
1519556635.5,286047001.2,N
1519556655.3,286046999.5,N
1519556675.2,286046996.5,N
1519556695.0,286046996.9,N
1519556695.9,286046996.9,N
1519556715.8,286046999.0,N
1519556735.6,286046999.3,N
1519556755.4,286046998.5,N
1519556775.3,286046999.5,N
1519556795.1,286046999.1,N
1519556815.8,286046996.6,N
1519556835.7,286046997.1,N
1519556855.5,286046999.6,N
1519556875.4,286046999.5,N
1519556895.2,286046996.7,N
1519556915.1,286046996.6,N
1519556916.0,286046996.6,N
1519556935.8,286046997.8,N
1519556955.6,286046997.2,N
1519556975.5,286046997.4,N
1519556995.3,286046997.6,N
1519557015.2,286046995.0,N
1519557035.9,286046997.3,N
1519557055.7,286046997.8,N
1519557075.6,286046994.9,N
1519557095.4,286046995.4,N
1519557115.3,286046995.4,N
1519557135.1,286046997.5,N
1519557136.0,286046997.5,N
1519557155.8,286046994.9,N
1519557175.7,286046995.1,Y
1519557195.5,286046998.5,P
1519557215.4,286046999.2,N
1519557235.2,286046999.1,N
1519557255.0,286046999.5,N
1519557255.9,286046999.5,N
1519557275.8,286047001.1,N
1519557295.6,286046998.4,N
1519557315.5,286046998.6,N
1519557335.3,286046999.0,N
1519557355.1,286046998.5,N
1519557375.9,286046998.1,N
1519557395.7,286047001.2,N
1519557415.5,286046998.1,N
1519557435.4,286047000.5,N
1519557455.2,286047000.9,N
1519557475.1,286046998.2,N
1519557476.0,286046998.2,N
1519557495.8,286046998.3,N
1519557515.6,286046998.9,N
1519557535.5,286046998.4,N
1519557555.3,286046996.5,Y
1519557575.2,286046998.1,P
1519557595.9,286046998.2,P
1519557615.7,286046998.4,P
1519557635.6,286046998.5,Y
1519557655.4,286047000.9,P
1519557675.3,286047000.6,N
1519557695.1,286046999.9,N
1519557696.0,286046999.9,N
1519557715.8,286047000.1,N
1519557735.7,286047002.4,Y
1519557755.5,286047002.5,P
1519557775.4,286047000.6,N
1519557795.2,286047001.1,N
1519557815.0,286046999.9,N
1519557815.9,286046999.9,N
1519557835.8,286046999.9,N
1519557855.6,286046999.8,N
1519557875.4,286046999.8,N
1519557895.3,286046999.9,N
1519557915.1,286047000.0,N
1519557935.9,286046999.9,N
1519557955.7,286047000.3,N
1519557975.5,286046999.9,N
1519557995.4,286047001.1,N
1519558015.2,286046998.5,N
1519558035.0,286047001.1,N
1519558035.9,286047001.1,N
1519558055.8,286047000.8,N
1519558075.6,286046998.7,N
1519558095.5,286047000.3,N
1519558115.3,286047000.6,N
1519558135.1,286047000.4,N
1519558155.9,286047000.7,N
1519558175.7,286046998.1,N
1519558195.6,286047000.5,N
1519558215.4,286047000.6,N
1519558235.2,286047001.0,N
1519558255.1,286047000.1,N
1519558256.0,286047000.1,N
1519558275.8,286047002.1,N
1519558295.6,286047001.6,N
1519558315.5,286047004.0,Y
1519558335.3,286047002.5,P
1519558355.2,286047002.3,N
1519558375.9,286047002.6,N
1519558395.7,286047002.6,N
1519558415.6,286047002.6,N
1519558435.4,286047001.6,N
1519558455.2,286047001.6,N
1519558475.1,286047001.6,N
1519558476.0,286047001.6,N
1519558495.8,286047001.6,N
1519558515.7,286047002.0,N
1519558535.5,286047002.1,Y
1519558555.3,286047000.0,P
1519558575.2,286047000.4,N
1519558595.0,286047000.2,N
1519558595.9,286047000.2,N
1519558615.8,286047000.9,N
1519558635.6,286047000.6,N
1519558655.4,286046999.8,N
1519558675.3,286047002.4,Y
1519558695.1,286047000.0,P
1519558715.8,286047002.4,P
1519558735.7,286047000.9,N
1519558755.5,286047000.3,N
1519558775.4,286046998.3,N
1519558795.2,286046999.9,N
1519558815.0,286046999.9,N
1519558815.9,286046999.9,N
1519558835.8,286046999.7,N
1519558855.6,286047001.9,N
1519558875.4,286047002.6,N
1519558895.3,286047002.4,N
1519558915.1,286047002.2,N
1519558935.9,286047004.4,Y
1519558955.7,286047002.8,P
1519558975.5,286047000.0,N
1519558995.4,286047002.1,N
1519559015.2,286047001.4,N
1519559035.1,286047001.6,N
1519559036.0,286047001.6,N
1519559055.8,286047001.8,N
1519559075.6,286047001.7,N
1519559095.5,286047002.0,N
1519559115.3,286047002.3,Y
1519559135.2,286047000.7,P
1519559155.9,286047001.2,N
1519559175.7,286047000.9,N
1519559195.6,286046999.9,N
1519559215.4,286047000.5,N
1519559235.2,286047001.1,N
1519559255.1,286047001.0,N
1519559256.0,286047001.0,N
1519559275.8,286046998.1,Y
1519559295.7,286046998.7,P
1519559315.5,286046998.9,N
1519559335.3,286047000.7,N
1519559355.2,286047000.4,N
1519559375.0,286047000.8,N
1519559375.9,286047000.8,N
1519559395.7,286046998.6,N
1519559415.6,286046999.9,N
1519559435.4,286047002.8,Y
1519559455.3,286047002.8,P
1519559475.1,286047000.0,N
1519559495.8,286047000.8,N
1519559515.7,286047000.5,N
1519559535.5,286046999.1,N
1519559555.3,286046999.6,N
1519559575.2,286046999.0,N
1519559595.0,286047000.9,N
1519559595.9,286047000.9,N
1519559615.8,286047000.8,N
1519559635.6,286047001.2,N
1519559655.4,286046998.9,N
1519559675.3,286046998.6,N
1519559695.1,286047000.4,N
1519559715.9,286047000.2,N
1519559735.7,286047002.7,N
1519559755.5,286047000.9,N
1519559775.4,286047000.0,N
1519559795.2,286047000.4,N
1519559815.0,286047000.3,N
1519559815.9,286047000.3,N
1519559835.8,286046999.9,N
1519559855.6,286047000.1,N
1519559875.5,286047002.5,N
1519559895.3,286047000.2,N
1519559915.1,286047000.4,N
1519559935.9,286047002.8,N
1519559955.7,286047002.5,N
1519559975.5,286047002.7,N
1519559995.4,286047000.4,N
